Weather History for New Bern, NC

Change the Weather History Date:

Tuesday, February 5, 2013

  Actual Average Record
Temperature  
Mean Temperature 54 °F 46 °F  
Max Temperature 67 °F 56 °F 78 °F (2008)
Min Temperature 40 °F 35 °F 16 °F (1951)
Degree Days  
Heating Degree Days 11 19  
Month to date heating degree days 85 99  
Since 1 July heating degree days 1529 1739  
Cooling Degree Days 0 0  
Month to date cooling degree days 0 0  
Year to date cooling degree days 7 1  
Growing Degree Days 4 (Base 50)    
Moisture  
Dew Point 35 °F    
Average Humidity 55    
Maximum Humidity 82    
Minimum Humidity 28    
Precipitation  
Precipitation 0.00 in 0.13 in 1.96 in (2010)
Month to date precipitation T 0.64  
Year to date precipitation 1.83 4.66  
Snow  
Snow 0.00 in - - ()
Month to date snowfall 0.0  
Since 1 July snowfall 0.0  
Snow Depth 0.00 in    
Sea Level Pressure  
Sea Level Pressure 29.98 in    
Wind  
Wind Speed 6 mph (SW)    
Max Wind Speed 17 mph    
Max Gust Speed 24 mph    
Visibility 10 miles    
Events      
T = Trace of Precipitation, MM = Missing Value Source: NWS Daily Summary

Daily Weather History Graph

Daily Weather History Graph

Search for Another Location

Airport:

Trip Planner

Search our weather history database for the weather conditions in past years. The results will help you decide how hot, cold, wet, or windy it might be!

Date:

Astronomy

Feb. 05, 2013 Rise Set
Actual Time 7:03 AM EST 5:41 PM EST
Civil Twilight 6:37 AM EST 6:07 PM EST
Nautical Twilight 6:07 AM EST 6:37 PM EST
Astronomical Twilight 5:37 AM EST 7:07 PM EST
Moon 2:39 AM EST (2/5) 1:00 PM EST (2/5)
Length of Visible Light 11h 30m
Length of Day
10h 37m
Waning Crescent, 27% of the Moon is Illuminated
Feb 5
Waning Crescent
Feb 10
New
Feb 17
First Quarter
Feb 25
Full
Mar 4
Last Quarter

Hourly Weather History & Observations

Time (EST) Temp. Windchill Dew Point Humidity Pressure Visibility Wind Dir Wind Speed Gust Speed Precip Events Conditions
12:54 AM 41.0 °F - 32.0 °F 70% 30.06 in 10.0 mi Calm Calm - N/A   Clear
1:54 AM 41.0 °F - 33.1 °F 73% 30.04 in 10.0 mi Calm Calm - N/A   Clear
2:54 AM 41.0 °F - 33.1 °F 73% 30.02 in 10.0 mi Calm Calm - N/A   Clear
3:54 AM 42.1 °F - 34.0 °F 73% 30.00 in 10.0 mi Calm Calm - N/A   Clear
4:54 AM 43.0 °F 41.3 °F 34.0 °F 71% 29.99 in 10.0 mi SSW 3.5 mph - N/A   Clear
5:54 AM 43.0 °F - 35.1 °F 74% 30.00 in 10.0 mi Calm Calm - N/A   Clear
6:54 AM 44.1 °F 40.1 °F 35.1 °F 71% 30.01 in 10.0 mi SSW 6.9 mph - N/A   Clear
7:54 AM 46.9 °F - 36.0 °F 66% 30.03 in 10.0 mi WSW 5.8 mph - N/A   Clear
8:54 AM 51.1 °F - 37.0 °F 59% 30.05 in 10.0 mi WSW 8.1 mph - N/A   Clear
9:54 AM 55.9 °F - 35.1 °F 45% 30.04 in 10.0 mi WSW 6.9 mph - N/A   Clear
10:54 AM 59.0 °F - 33.1 °F 38% 30.03 in 7.0 mi West 10.4 mph - N/A   Partly Cloudy
11:54 AM 62.1 °F - 30.0 °F 30% 29.99 in 6.0 mi West 13.8 mph 20.7 mph N/A   Haze
12:54 PM 63.0 °F - 30.0 °F 29% 29.96 in 10.0 mi West 13.8 mph 21.9 mph N/A   Partly Cloudy
1:54 PM 64.9 °F - 33.1 °F 31% 29.93 in 10.0 mi West 13.8 mph - N/A   Mostly Cloudy
2:54 PM 64.9 °F - 33.1 °F 31% 29.91 in 10.0 mi SW 11.5 mph - N/A   Scattered Clouds
3:54 PM 66.0 °F - 32.0 °F 28% 29.90 in 10.0 mi SW 9.2 mph - N/A   Partly Cloudy
4:54 PM 64.9 °F - 33.1 °F 31% 29.89 in 10.0 mi SW 9.2 mph - N/A   Clear
5:54 PM 60.1 °F - 35.1 °F 39% 29.90 in 10.0 mi South 6.9 mph - N/A   Clear
6:54 PM 52.0 °F - 39.0 °F 61% 29.93 in 10.0 mi SSW 3.5 mph - N/A   Clear
7:54 PM 54.0 °F - 41.0 °F 62% 29.95 in 10.0 mi SSW 5.8 mph - N/A   Clear
8:54 PM 51.1 °F - 39.9 °F 66% 29.96 in 10.0 mi SW 5.8 mph - N/A   Clear
9:54 PM 48.9 °F - 42.1 °F 77% 29.97 in 10.0 mi SW 3.5 mph - N/A   Clear
10:54 PM 46.9 °F - 41.0 °F 80% 29.98 in 10.0 mi SSW 3.5 mph - N/A   Clear
11:54 PM 46.9 °F - 39.9 °F 77% 29.99 in 10.0 mi Calm Calm - N/A   Clear